Vorticity
nan nan nan nan nan nan nan nan nan nan nan nan nan nan nan nan nan nan nan nan nan nan nan nan nan nan nan nan nan nan nan nan nan
nan 14 11 10 10 7 7 9 9 6 7 8 9 7 7 7 7 8 8 7 7 8 8 10 11 10 9 8 9 10 8 7 nan
nan 19 25 16 11 8 7 8 8 8 9 10 8 7 6 8 7 6 8 8 9 7 8 9 9 9 9 9 9 10 8 8 nan
nan 12 21 22 17 13 9 12 14 9 7 9 8 8 8 8 8 7 7 6 8 9 8 9 9 9 9 9 9 10 8 7 nan
nan 11 7 14 16 12 12 13 12 11 9 8 9 9 9 8 8 9 7 7 6 10 9 8 9 9 9 9 10 11 9 8 nan
nan 2 8 9 11 15 13 8 10 10 10 10 9 9 8 8 8 10 9 8 6 6 8 7 9 9 9 10 10 9 10 9 nan
nan 12 7 2 7 15 16 13 10 10 9 10 10 10 9 8 9 8 8 9 9 7 7 6 5 7 9 10 10 10 10 9 nan
nan 4 7 10 7 7 14 13 12 10 10 11 10 9 8 9 9 9 9 10 10 10 9 9 7 6 8 11 8 9 10 9 nan
nan 8 8 6 8 13 16 13 11 9 9 11 11 9 9 9 9 10 9 10 11 9 8 9 10 9 8 6 9 13 10 5 nan
nan 10 7 9 10 11 12 17 16 16 13 11 10 8 9 11 11 10 10 10 9 10 10 9 10 10 9 7 10 14 12 5 nan
nan 25 14 11 8 9 13 19 21 18 20 16 12 13 12 11 12 11 10 11 9 9 12 10 9 10 10 9 11 14 14 9 nan
nan 20 14 14 12 15 13 13 20 18 13 16 15 16 14 13 13 12 11 10 10 9 9 10 10 9 11 9 11 15 12 8 nan
nan 13 13 9 10 12 7 11 13 11 10 11 10 12 12 11 13 13 10 11 13 13 11 9 10 10 11 11 13 14 16 6 nan
nan 9 9 7 9 8 7 9 8 8 9 6 7 9 9 8 9 12 12 11 13 13 12 12 11 14 15 14 19 23 22 10 nan
nan 11 8 10 8 5 6 11 11 6 6 8 11 10 7 8 9 12 12 13 13 12 12 13 15 13 12 14 16 21 19 16 nan
nan 11 11 12 7 5 7 9 8 6 7 10 11 10 10 9 9 10 12 12 13 15 15 13 15 12 9 9 10 17 21 15 nan
nan 12 13 11 10 7 7 6 8 8 10 12 11 9 8 9 11 11 13 13 14 13 12 14 14 10 10 10 10 10 12 11 nan
nan 14 13 12 12 11 8 8 11 10 7 7 9 12 15 14 12 12 10 8 10 18 18 21 17 16 14 11 12 15 13 13 nan
nan 12 11 10 11 9 10 11 12 13 11 11 13 15 14 13 11 11 11 10 4 7 15 24 25 22 17 16 19 13 12 19 nan
nan nan nan nan nan nan nan nan nan nan nan nan nan nan nan nan nan nan nan nan nan nan nan nan nan nan nan nan nan nan nan nan nan
CAPE
0 26 168 188 72 32 204 278 248 118 380 242 336 380 335 270 249 515 706 596 598 880 1187 1133 1216 1169 1267 1691 1838 1677 1490 1584 1710
60 3 178 218 196 108 239 263 310 205 156 433 259 573 522 664 932 917 890 862 1045 1362 1192 1260 1122 1073 1143 1461 1833 1800 1595 1619 1749
210 100 0 232 329 248 230 385 330 275 187 209 499 484 540 660 854 1166 1530 948 914 1160 1124 898 993 935 940 1045 1609 1835 1692 1723 1837
354 228 91 60 339 431 372 578 532 429 350 218 270 509 550 466 414 632 884 1663 1231 962 1023 1103 955 894 831 949 1177 1642 1789 1712 1771
0 286 176 140 163 395 394 311 716 716 614 474 440 523 514 477 361 369 737 1005 1669 1561 1211 961 952 1194 1481 1335 1120 1481 1822 1781 2022
9 135 20 139 78 32 332 257 562 766 778 691 639 754 762 815 798 646 588 820 1144 1623 1613 1412 984 1013 1306 1588 1575 1524 1773 1959 2034
44 74 13 52 8 184 67 434 684 710 995 976 927 1106 1053 1155 1218 1291 1198 989 910 1126 1608 1778 1435 1184 1267 1604 1751 1778 1805 2018 2086
159 41 0 3 112 108 94 341 595 923 951 1276 1184 1247 1488 1484 1777 1721 1747 1702 1509 1325 1321 1580 1617 1544 1332 1315 1798 1872 2029 2123 2272
203 53 0 0 6 23 519 69 399 790 1029 1394 1424 1435 1598 1666 1705 2019 2054 2098 2054 1890 1711 1478 1574 1581 1428 1502 1738 1943 2035 2134 2305
7 85 0 0 3 127 525 533 125 593 1067 1517 1601 1676 1674 1784 1723 1663 1755 1881 2042 2105 2065 1902 1504 1487 1498 1417 1274 1642 1445 1792 2255
0 51 29 71 17 9 125 737 627 140 843 1498 1714 1815 1759 1571 1529 1768 1734 1690 1730 1838 1968 2024 1897 1550 1418 1352 1327 1187 1010 1070 1929
0 1 1 0 59 173 747 1485 2074 1014 1002 952 1106 1107 1245 1033 886 706 1117 1261 1533 1610 1563 1651 1888 1801 1590 1601 1548 1329 611 573 1523
1 105 131 470 461 364 418 930 2290 2226 1985 2014 2069 1970 1934 1979 2318 2220 1017 514 643 1121 1330 1436 1439 1710 1705 1647 1763 1667 470 309 1436
0 115 185 221 313 425 420 305 321 693 913 1090 1145 1396 1308 1161 1132 1366 1799 2369 2455 1376 768 911 1138 1269 1401 1396 1015 1806 677 37 1600
0 4 189 130 162 297 355 351 201 296 342 477 871 1157 1057 931 928 1216 1784 1548 1979 2214 2635 2490 1536 937 0 0 0 70 1 0 615
0 0 39 133 112 94 49 35 62 24 43 161 613 804 858 784 499 50 0 1 38 967 2714 3115 2428 326 1 0 1 0 2 1 0
0 0 11 246 69 0 0 0 0 0 0 0 42 95 248 549 88 0 0 1 1 1 1020 3341 668 32 0 1 1 1 1 0 0
0 0 589 80 0 0 0 0 0 0 2 33 79 74 205 216 0 0 0 1 0 1 1 1 432 123 0 0 1 1 1 1 1
0 0 78 0 0 0 0 0 0 3 117 203 204 360 541 0 0 0 0 0 0 0 0 1 2 0 0 1 0 1 2 2 2
60 45 7 0 1 0 0 0 0 5 118 190 307 232 0 0 0 0 1 0 1 0 1 0 0 1 2 0 1 2 1 1 1